Weather History for Jefferson City, MO

Change the Weather History Date:

Monday, November 19, 2012

  Actual Average Record
Temperature  
Mean Temperature 53 °F -  
Max Temperature 60 °F 55 °F 79 °F (1942)
Min Temperature 46 °F 33 °F 15 °F (1951)
Degree Days  
Heating Degree Days 12    
Growing Degree Days 3 (Base 50)    
Moisture  
Dew Point 43 °F    
Average Humidity 70    
Maximum Humidity 83    
Minimum Humidity 47    
Precipitation  
Precipitation 0.04 in - - ()
Sea Level Pressure  
Sea Level Pressure 30.15 in    
Wind  
Wind Speed 4 mph (SE)    
Max Wind Speed 10 mph    
Max Gust Speed -    
Visibility 10 miles    
Events Rain    
Averages and records for this station are not official NWS values.
T = Trace of Precipitation, MM = Missing Value Source: NWS Daily Summary

Daily Weather History Graph

Daily Weather History Graph

Search for Another Location

Airport:

Trip Planner

Search our weather history database for the weather conditions in past years. The results will help you decide how hot, cold, wet, or windy it might be!

Date:

Astronomy

Nov. 19, 2012 Rise Set
Actual Time 6:55 AM CST 4:52 PM CST
Civil Twilight 6:26 AM CST 5:21 PM CST
Nautical Twilight 5:54 AM CST 5:53 PM CST
Astronomical Twilight 5:22 AM CST 6:24 PM CST
Moon 12:00 PM CST (11/19) 11:18 PM CST (11/19)
Length of Visible Light 10h 54m
Length of Day
9h 56m
Waxing Crescent, 41% of the Moon is Illuminated
Nov 19
Waxing Crescent
Nov 20
First Quarter
Nov 28
Full
Dec 6
Last Quarter
Dec 13
New

Hourly Weather History & Observations

Time (CST) Temp. Dew Point Humidity Pressure Visibility Wind Dir Wind Speed Gust Speed Precip Events Conditions
12:53 AM 52.0 °F 32.0 °F 47% 30.22 in 10.0 mi ESE 4.6 mph - N/A   Clear
1:53 AM 52.0 °F 34.0 °F 50% 30.22 in 10.0 mi East 4.6 mph - N/A   Overcast
2:53 AM 51.1 °F 34.0 °F 52% 30.21 in 10.0 mi SE 4.6 mph - N/A   Overcast
3:53 AM 51.1 °F 37.0 °F 59% 30.22 in 10.0 mi Calm Calm - 0.01 in   Overcast
4:53 AM 48.9 °F 39.9 °F 71% 30.21 in 10.0 mi East 4.6 mph - N/A   Mostly Cloudy
6:53 AM 46.9 °F 42.1 °F 83% 30.21 in 10.0 mi Calm Calm - N/A   Overcast
7:53 AM 48.9 °F 42.1 °F 77% 30.22 in 10.0 mi ESE 4.6 mph - 0.03 in   Overcast
8:53 AM 48.9 °F 44.1 °F 83% 30.22 in 10.0 mi ESE 4.6 mph - N/A   Overcast
9:53 AM 50.0 °F 44.1 °F 80% 30.22 in 9.0 mi SE 5.8 mph - N/A   Overcast
10:53 AM 52.0 °F 45.0 °F 77% 30.20 in 7.0 mi SE 8.1 mph - 0.00 in Rain Light Rain
11:53 AM 53.1 °F 45.0 °F 74% 30.17 in 10.0 mi SSE 4.6 mph - 0.00 in   Overcast
12:53 PM 55.0 °F 46.0 °F 72% 30.13 in 10.0 mi SE 4.6 mph - N/A   Overcast
1:53 PM 59.0 °F 46.0 °F 62% 30.11 in 10.0 mi South 9.2 mph - N/A   Clear
2:53 PM 59.0 °F 46.0 °F 62% 30.10 in 10.0 mi South 5.8 mph - N/A   Scattered Clouds
3:53 PM 60.1 °F 46.0 °F 60% 30.09 in 10.0 mi SSE 10.4 mph - N/A   Overcast
4:53 PM 57.0 °F 46.0 °F 67% 30.09 in 10.0 mi SE 4.6 mph - N/A   Mostly Cloudy
5:53 PM 55.0 °F 46.0 °F 72% 30.10 in 10.0 mi SE 3.5 mph - N/A   Mostly Cloudy
6:53 PM 52.0 °F 45.0 °F 77% 30.11 in 10.0 mi ESE 5.8 mph - N/A   Clear
7:53 PM 51.1 °F 44.1 °F 77% 30.10 in 10.0 mi SSE 5.8 mph - N/A   Clear
8:53 PM 52.0 °F 45.0 °F 77% 30.10 in 10.0 mi South 5.8 mph - N/A   Clear
9:53 PM 51.1 °F 44.1 °F 77% 30.10 in 10.0 mi South 4.6 mph - N/A   Clear
10:53 PM 50.0 °F 44.1 °F 80% 30.09 in 10.0 mi Calm Calm - N/A   Clear
11:53 PM 50.0 °F 44.1 °F 80% 30.09 in 10.0 mi Calm Calm - N/A   Clear